Time,TemperatureF,DewpointF,PressureIn,WindDirection,WindDirectionDegrees,WindSpeedMPH,WindSpeedGustMPH,Humidity,HourlyPrecipIn,Conditions,Clouds,dailyrainin,SoftwareType,DateUTC
2013-03-03 00:03:00,30.6,26.1,30.01,West,270,2.5,4.7,83,0.00,,,0.00,WUHU216HW,2013-03-03 06:03:00,
2013-03-03 00:08:00,30.6,25.7,30.01,West,270,5.6,6.0,82,0.00,,,0.00,WUHU216HW,2013-03-03 06:08:00,
2013-03-03 00:13:00,30.8,26.3,30.01,West,270,3.4,6.0,83,0.00,,,0.00,WUHU216HW,2013-03-03 06:13:00,
2013-03-03 00:18:00,30.8,25.9,30.01,West,270,1.3,5.6,82,0.00,,,0.00,WUHU216HW,2013-03-03 06:18:00,
2013-03-03 00:23:00,30.6,25.5,30.01,West,270,2.7,4.0,81,0.00,,,0.00,WUHU216HW,2013-03-03 06:23:00,
2013-03-03 00:29:00,30.6,25.5,30.02,West,270,3.4,5.4,81,0.00,,,0.00,WUHU216HW,2013-03-03 06:29:00,
2013-03-03 00:34:00,30.6,25.5,30.02,West,270,2.0,5.8,81,0.00,,,0.00,WUHU216HW,2013-03-03 06:34:00,
2013-03-03 00:39:00,30.6,25.7,30.02,West,270,3.4,5.8,82,0.00,,,0.00,WUHU216HW,2013-03-03 06:39:00,
2013-03-03 00:44:00,30.6,25.7,30.01,West,270,1.1,3.6,82,0.00,,,0.00,WUHU216HW,2013-03-03 06:44:00,
2013-03-03 00:48:00,30.6,26.1,30.02,West,270,1.1,3.6,83,0.00,,,0.00,WUHU216HW,2013-03-03 06:48:00,
2013-03-03 00:53:00,30.4,25.9,30.02,West,270,1.3,3.6,83,0.00,,,0.00,WUHU216HW,2013-03-03 06:53:00,
2013-03-03 00:58:00,30.6,26.1,30.02,West,270,2.0,3.6,83,0.00,,,0.00,WUHU216HW,2013-03-03 06:58:00,
2013-03-03 01:04:00,30.4,25.9,30.02,West,270,1.3,5.4,83,0.00,,,0.00,WUHU216HW,2013-03-03 07:04:00,
2013-03-03 01:09:00,30.6,26.1,30.02,West,270,1.1,5.4,83,0.00,,,0.00,WUHU216HW,2013-03-03 07:09:00,
2013-03-03 01:14:00,30.4,25.6,30.02,West,270,3.6,5.4,82,0.00,,,0.00,WUHU216HW,2013-03-03 07:14:00,
2013-03-03 01:19:00,30.4,25.6,30.01,West,270,2.5,5.4,82,0.00,,,0.00,WUHU216HW,2013-03-03 07:19:00,
2013-03-03 01:24:00,30.4,25.6,30.01,West,270,2.5,5.1,82,0.00,,,0.00,WUHU216HW,2013-03-03 07:24:00,
2013-03-03 01:29:00,30.2,25.4,30.01,West,270,2.5,5.1,82,0.00,,,0.00,WUHU216HW,2013-03-03 07:29:00,
2013-03-03 01:34:00,30.4,25.6,30.01,West,270,1.6,2.7,82,0.00,,,0.00,WUHU216HW,2013-03-03 07:34:00,
2013-03-03 01:39:00,30.2,25.4,30.01,West,270,1.1,4.0,82,0.00,,,0.00,WUHU216HW,2013-03-03 07:39:00,
2013-03-03 01:44:00,30.2,25.4,30.01,West,270,0.4,4.0,82,0.00,,,0.00,WUHU216HW,2013-03-03 07:44:00,
2013-03-03 01:48:00,30.2,25.4,30.01,West,270,0.0,4.0,82,0.00,,,0.00,WUHU216HW,2013-03-03 07:48:00,
2013-03-03 01:53:00,30.2,24.8,30.01,West,270,3.6,3.8,80,0.00,,,0.00,WUHU216HW,2013-03-03 07:53:00,
2013-03-03 01:58:00,30.2,24.5,30.01,West,270,2.0,5.4,79,0.00,,,0.00,WUHU216HW,2013-03-03 07:58:00,
2013-03-03 02:04:00,30.2,24.5,30.01,West,270,2.2,5.8,79,0.00,,,0.00,WUHU216HW,2013-03-03 08:04:00,
2013-03-03 02:08:00,30.2,24.5,30.01,West,270,1.6,5.8,79,0.00,,,0.00,WUHU216HW,2013-03-03 08:08:00,
2013-03-03 02:14:00,30.2,24.5,30.01,West,270,3.4,4.9,79,0.00,,,0.00,WUHU216HW,2013-03-03 08:14:00,
2013-03-03 02:19:00,30.2,24.2,30.00,West,270,2.5,5.4,78,0.00,,,0.00,WUHU216HW,2013-03-03 08:19:00,
2013-03-03 02:24:00,30.2,24.2,30.00,West,270,1.8,5.4,78,0.00,,,0.00,WUHU216HW,2013-03-03 08:24:00,
2013-03-03 02:28:00,30.2,24.2,30.00,West,270,0.9,2.9,78,0.00,,,0.00,WUHU216HW,2013-03-03 08:28:00,
2013-03-03 02:33:00,30.2,24.2,30.00,West,270,2.7,3.8,78,0.00,,,0.00,WUHU216HW,2013-03-03 08:33:00,
2013-03-03 02:38:00,30.2,24.2,30.00,West,270,2.0,4.0,78,0.00,,,0.00,WUHU216HW,2013-03-03 08:38:00,
2013-03-03 02:43:00,30.2,23.9,30.00,West,270,2.0,4.0,77,0.00,,,0.00,WUHU216HW,2013-03-03 08:43:00,
2013-03-03 02:48:00,30.2,23.9,30.00,West,270,2.7,4.3,77,0.00,,,0.00,WUHU216HW,2013-03-03 08:48:00,
2013-03-03 02:53:00,30.2,23.6,30.00,West,270,4.7,4.7,76,0.00,,,0.00,WUHU216HW,2013-03-03 08:53:00,
2013-03-03 02:58:00,30.1,23.4,30.00,West,270,1.1,6.0,76,0.00,,,0.00,WUHU216HW,2013-03-03 08:58:00,
2013-03-03 03:03:00,30.1,23.0,30.00,West,270,2.5,6.0,75,0.00,,,0.00,WUHU216HW,2013-03-03 09:03:00,
2013-03-03 03:09:00,29.9,22.9,30.00,West,270,2.2,5.8,75,0.00,,,0.00,WUHU216HW,2013-03-03 09:09:00,
2013-03-03 03:14:00,29.9,22.9,30.00,West,270,2.5,5.4,75,0.00,,,0.00,WUHU216HW,2013-03-03 09:14:00,
2013-03-03 03:19:00,29.9,22.2,29.99,West,270,4.9,5.6,73,0.00,,,0.00,WUHU216HW,2013-03-03 09:19:00,
2013-03-03 03:24:00,29.9,22.2,29.99,West,270,4.0,7.4,73,0.00,,,0.00,WUHU216HW,2013-03-03 09:24:00,
2013-03-03 03:29:00,29.9,22.6,30.00,West,270,2.7,7.4,74,0.00,,,0.00,WUHU216HW,2013-03-03 09:29:00,
2013-03-03 03:34:00,29.7,22.1,30.00,West,270,4.0,5.4,73,0.00,,,0.00,WUHU216HW,2013-03-03 09:34:00,
2013-03-03 03:39:00,29.7,22.1,30.00,West,270,4.9,4.9,73,0.00,,,0.00,WUHU216HW,2013-03-03 09:39:00,
2013-03-03 03:44:00,29.7,22.4,30.00,West,270,1.1,5.4,74,0.00,,,0.00,WUHU216HW,2013-03-03 09:44:00,
2013-03-03 03:49:00,29.5,21.9,30.00,West,270,4.7,6.7,73,0.00,,,0.00,WUHU216HW,2013-03-03 09:49:00,
2013-03-03 03:54:00,29.5,21.9,30.00,West,270,1.6,6.7,73,0.00,,,0.00,WUHU216HW,2013-03-03 09:54:00,
2013-03-03 03:59:00,29.5,21.9,30.00,West,270,3.4,4.7,73,0.00,,,0.00,WUHU216HW,2013-03-03 09:59:00,
2013-03-03 04:04:00,29.3,21.8,30.00,West,270,1.6,4.9,73,0.00,,,0.00,WUHU216HW,2013-03-03 10:04:00,
2013-03-03 04:09:00,29.3,21.8,30.00,West,270,2.7,4.9,73,0.00,,,0.00,WUHU216HW,2013-03-03 10:09:00,
2013-03-03 04:15:00,29.2,21.2,30.00,West,270,4.0,4.0,72,0.00,,,0.00,WUHU216HW,2013-03-03 10:15:00,
2013-03-03 04:19:00,29.2,21.0,30.00,West,270,4.3,5.1,71,0.00,,,0.00,WUHU216HW,2013-03-03 10:19:00,
2013-03-03 04:25:00,29.2,21.6,30.00,West,270,1.3,5.1,73,0.00,,,0.00,WUHU216HW,2013-03-03 10:25:00,
2013-03-03 04:30:00,29.2,21.6,30.00,West,270,1.1,4.3,73,0.00,,,0.00,WUHU216HW,2013-03-03 10:30:00,
2013-03-03 04:35:00,29.0,21.1,30.00,West,270,2.9,4.0,72,0.00,,,0.00,WUHU216HW,2013-03-03 10:35:00,
2013-03-03 04:40:00,28.8,20.6,30.00,West,270,2.9,4.3,71,0.00,,,0.00,WUHU216HW,2013-03-03 10:40:00,
2013-03-03 04:45:00,28.8,20.4,30.00,West,270,1.6,4.3,70,0.00,,,0.00,WUHU216HW,2013-03-03 10:45:00,
2013-03-03 04:50:00,28.6,20.2,30.01,West,270,0.9,3.8,70,0.00,,,0.00,WUHU216HW,2013-03-03 10:50:00,
2013-03-03 04:55:00,28.4,20.3,30.01,West,270,3.4,4.0,71,0.00,,,0.00,WUHU216HW,2013-03-03 10:55:00,
2013-03-03 05:00:00,28.4,20.0,30.01,West,270,0.4,4.0,70,0.00,,,0.00,WUHU216HW,2013-03-03 11:00:00,
2013-03-03 05:05:00,28.3,20.1,30.01,West,270,0.7,3.4,71,0.00,,,0.00,WUHU216HW,2013-03-03 11:05:00,
2013-03-03 05:10:00,28.1,20.3,30.01,West,270,1.1,2.2,72,0.00,,,0.00,WUHU216HW,2013-03-03 11:10:00,
2013-03-03 05:15:00,27.9,20.1,30.01,West,270,0.4,2.2,72,0.00,,,0.00,WUHU216HW,2013-03-03 11:15:00,
2013-03-03 05:20:00,27.7,20.2,30.01,West,270,0.4,1.8,73,0.00,,,0.00,WUHU216HW,2013-03-03 11:20:00,
2013-03-03 05:25:00,27.7,20.2,30.01,West,270,0.2,1.1,73,0.00,,,0.00,WUHU216HW,2013-03-03 11:25:00,
2013-03-03 05:30:00,27.4,19.5,30.01,West,270,0.4,1.1,72,0.00,,,0.00,WUHU216HW,2013-03-03 11:30:00,
2013-03-03 05:35:00,27.4,19.8,30.01,West,270,0.0,0.7,73,0.00,,,0.00,WUHU216HW,2013-03-03 11:35:00,
2013-03-03 05:40:00,27.2,19.6,30.01,West,270,0.0,0.2,73,0.00,,,0.00,WUHU216HW,2013-03-03 11:40:00,
2013-03-03 05:45:00,27.0,19.4,30.01,West,270,0.0,0.2,73,0.00,,,0.00,WUHU216HW,2013-03-03 11:45:00,
2013-03-03 05:50:00,26.6,19.5,30.01,West,270,0.0,0.2,74,0.00,,,0.00,WUHU216HW,2013-03-03 11:50:00,
2013-03-03 05:56:00,25.9,19.0,30.01,West,270,0.0,0.0,75,0.00,,,0.00,WUHU216HW,2013-03-03 11:56:00,
2013-03-03 06:01:00,25.7,19.2,30.01,West,270,0.0,0.2,76,0.00,,,0.00,WUHU216HW,2013-03-03 12:01:00,
2013-03-03 06:07:00,25.2,19.0,30.01,West,270,0.0,0.2,77,0.00,,,0.00,WUHU216HW,2013-03-03 12:07:00,
2013-03-03 06:12:00,25.0,19.2,30.01,West,270,0.0,0.0,78,0.00,,,0.00,WUHU216HW,2013-03-03 12:12:00,
2013-03-03 06:18:00,24.8,19.3,30.02,West,270,0.0,0.4,79,0.00,,,0.00,WUHU216HW,2013-03-03 12:18:00,
2013-03-03 06:23:00,24.8,19.3,30.02,West,270,0.0,0.4,79,0.00,,,0.00,WUHU216HW,2013-03-03 12:23:00,
2013-03-03 06:29:00,24.7,19.1,30.02,West,270,0.0,0.4,79,0.00,,,0.00,WUHU216HW,2013-03-03 12:29:00,
2013-03-03 06:34:00,24.3,19.1,30.02,West,270,0.2,0.4,80,0.00,,,0.00,WUHU216HW,2013-03-03 12:34:00,
2013-03-03 06:40:00,24.1,18.9,30.02,West,270,0.0,0.4,80,0.00,,,0.00,WUHU216HW,2013-03-03 12:40:00,
2013-03-03 06:50:00,24.1,18.9,30.02,West,270,0.0,0.4,80,0.00,,,0.00,WUHU216HW,2013-03-03 12:50:00,
2013-03-03 06:55:00,24.1,18.9,30.02,West,270,0.0,0.0,80,0.00,,,0.00,WUHU216HW,2013-03-03 12:55:00,
2013-03-03 07:01:00,24.1,19.2,30.02,West,270,0.0,0.0,81,0.00,,,0.00,WUHU216HW,2013-03-03 13:01:00,
2013-03-03 07:06:00,24.5,19.5,30.02,West,270,0.0,0.4,81,0.00,,,0.00,WUHU216HW,2013-03-03 13:06:00,
2013-03-03 07:11:00,24.8,20.2,30.02,West,270,1.1,2.2,82,0.00,,,0.00,WUHU216HW,2013-03-03 13:11:00,
2013-03-03 07:16:00,25.6,20.5,30.02,West,270,1.3,2.2,81,0.00,,,0.00,WUHU216HW,2013-03-03 13:16:00,
2013-03-03 07:21:00,26.1,21.1,30.02,West,270,2.2,3.6,81,0.00,,,0.00,WUHU216HW,2013-03-03 13:21:00,
2013-03-03 07:26:00,26.8,21.4,30.02,West,270,1.8,4.3,80,0.00,,,0.00,WUHU216HW,2013-03-03 13:26:00,
2013-03-03 07:31:00,27.4,21.7,30.03,West,270,0.7,4.3,79,0.00,,,0.00,WUHU216HW,2013-03-03 13:31:00,
2013-03-03 07:36:00,27.7,21.1,30.03,West,270,0.9,5.4,76,0.00,,,0.00,WUHU216HW,2013-03-03 13:36:00,
2013-03-03 07:41:00,28.1,20.9,30.03,West,270,2.0,5.4,74,0.00,,,0.00,WUHU216HW,2013-03-03 13:41:00,
2013-03-03 07:46:00,28.4,20.9,30.03,West,270,4.9,6.0,73,0.00,,,0.00,WUHU216HW,2013-03-03 13:46:00,
2013-03-03 07:51:00,28.6,21.1,30.03,West,270,1.1,6.7,73,0.00,,,0.00,WUHU216HW,2013-03-03 13:51:00,
2013-03-03 07:56:00,28.8,21.3,30.03,West,270,4.3,6.7,73,0.00,,,0.00,WUHU216HW,2013-03-03 13:56:00,
2013-03-03 08:01:00,29.2,21.2,30.03,West,270,2.7,6.3,72,0.00,,,0.00,WUHU216HW,2013-03-03 14:01:00,
2013-03-03 08:06:00,29.3,21.4,30.03,West,270,5.6,6.3,72,0.00,,,0.00,WUHU216HW,2013-03-03 14:06:00,
2013-03-03 08:11:00,29.5,21.6,30.03,West,270,5.1,7.6,72,0.00,,,0.00,WUHU216HW,2013-03-03 14:11:00,
2013-03-03 08:16:00,29.9,21.2,30.03,West,270,5.4,7.6,70,0.00,,,0.00,WUHU216HW,2013-03-03 14:16:00,
2013-03-03 08:21:00,29.9,20.5,30.03,West,270,4.5,7.8,68,0.00,,,0.00,WUHU216HW,2013-03-03 14:21:00,
2013-03-03 08:26:00,29.9,20.9,30.03,West,270,5.4,7.8,69,0.00,,,0.00,WUHU216HW,2013-03-03 14:26:00,
2013-03-03 08:31:00,30.2,20.9,30.03,West,270,8.7,8.7,68,0.00,,,0.00,WUHU216HW,2013-03-03 14:31:00,
2013-03-03 08:36:00,30.4,20.7,30.03,West,270,4.0,8.7,67,0.00,,,0.00,WUHU216HW,2013-03-03 14:36:00,
2013-03-03 08:41:00,30.6,20.5,30.03,West,270,2.9,6.5,66,0.00,,,0.00,WUHU216HW,2013-03-03 14:41:00,
2013-03-03 08:46:00,30.6,20.9,30.03,West,270,4.7,6.9,67,0.00,,,0.00,WUHU216HW,2013-03-03 14:46:00,
2013-03-03 08:51:00,30.6,20.5,30.03,West,270,5.4,9.2,66,0.00,,,0.00,WUHU216HW,2013-03-03 14:51:00,
2013-03-03 08:56:00,30.6,20.5,30.03,West,270,2.9,9.2,66,0.00,,,0.00,WUHU216HW,2013-03-03 14:56:00,
2013-03-03 09:01:00,30.8,20.7,30.03,West,270,4.3,6.0,66,0.00,,,0.00,WUHU216HW,2013-03-03 15:01:00,
2013-03-03 09:06:00,31.1,21.1,30.03,NW,315,4.3,8.5,66,0.00,,,0.00,WUHU216HW,2013-03-03 15:06:00,
2013-03-03 09:11:00,31.5,21.1,30.03,North,0,0.4,8.7,65,0.00,,,0.00,WUHU216HW,2013-03-03 15:11:00,
2013-03-03 09:16:00,31.9,21.1,30.03,NNW,338,6.3,8.7,64,0.00,,,0.00,WUHU216HW,2013-03-03 15:16:00,
2013-03-03 09:21:00,31.3,20.5,30.03,NNW,338,4.0,7.4,64,0.00,,,0.00,WUHU216HW,2013-03-03 15:21:00,
2013-03-03 09:26:00,31.3,20.5,30.03,NNW,338,2.5,6.3,64,0.00,,,0.00,WUHU216HW,2013-03-03 15:26:00,
2013-03-03 09:31:00,31.9,21.1,30.03,NNW,338,2.0,6.5,64,0.00,,,0.00,WUHU216HW,2013-03-03 15:31:00,
2013-03-03 09:36:00,31.9,20.7,30.03,NNW,338,1.8,6.5,63,0.00,,,0.00,WUHU216HW,2013-03-03 15:36:00,
2013-03-03 09:41:00,32.4,21.3,30.03,NNW,338,6.5,6.5,63,0.00,,,0.00,WUHU216HW,2013-03-03 15:41:00,
2013-03-03 09:46:00,32.2,21.1,30.03,NNW,338,1.3,6.5,63,0.00,,,0.00,WUHU216HW,2013-03-03 15:46:00,
2013-03-03 09:51:00,32.8,21.5,30.03,NW,315,3.4,4.5,63,0.00,,,0.00,WUHU216HW,2013-03-03 15:51:00,
2013-03-03 09:56:00,32.9,21.3,30.03,NW,315,3.4,7.6,62,0.00,,,0.00,WUHU216HW,2013-03-03 15:56:00,
2013-03-03 10:02:00,32.9,20.6,30.03,NNW,338,4.3,7.6,60,0.00,,,0.00,WUHU216HW,2013-03-03 16:02:00,
2013-03-03 10:07:00,32.8,20.4,30.03,North,0,2.5,6.5,60,0.00,,,0.00,WUHU216HW,2013-03-03 16:07:00,
2013-03-03 10:12:00,32.9,21.3,30.03,NNE,23,2.7,6.5,62,0.00,,,0.00,WUHU216HW,2013-03-03 16:12:00,
2013-03-03 10:17:00,33.3,21.0,30.03,SW,225,3.8,7.2,60,0.00,,,0.00,WUHU216HW,2013-03-03 16:17:00,
2013-03-03 10:22:00,33.7,22.3,30.03,NNW,338,6.5,8.3,63,0.00,,,0.00,WUHU216HW,2013-03-03 16:22:00,
2013-03-03 10:27:00,33.8,20.5,30.03,NW,315,4.7,8.3,58,0.00,,,0.00,WUHU216HW,2013-03-03 16:27:00,
2013-03-03 10:32:00,34.0,21.2,30.03,North,0,6.9,7.4,59,0.00,,,0.00,WUHU216HW,2013-03-03 16:32:00,
2013-03-03 10:37:00,34.2,20.9,30.03,NNW,338,2.2,7.4,58,0.00,,,0.00,WUHU216HW,2013-03-03 16:37:00,
2013-03-03 10:42:00,34.2,20.9,30.03,NNW,338,1.6,6.3,58,0.00,,,0.00,WUHU216HW,2013-03-03 16:42:00,
2013-03-03 10:47:00,34.4,21.1,30.03,NNW,338,4.5,6.3,58,0.00,,,0.00,WUHU216HW,2013-03-03 16:47:00,
2013-03-03 10:52:00,34.9,21.6,30.03,NNE,23,4.7,9.4,58,0.00,,,0.00,WUHU216HW,2013-03-03 16:52:00,
2013-03-03 10:57:00,34.9,20.8,30.03,North,0,2.9,9.4,56,0.00,,,0.00,WUHU216HW,2013-03-03 16:57:00,
2013-03-03 11:02:00,34.9,21.3,30.02,NE,45,0.7,7.8,57,0.00,,,0.00,WUHU216HW,2013-03-03 17:02:00,
2013-03-03 11:07:00,35.3,21.2,30.02,NW,315,6.3,7.8,56,0.00,,,0.00,WUHU216HW,2013-03-03 17:07:00,
2013-03-03 11:12:00,35.3,21.2,30.02,South,180,1.1,8.5,56,0.00,,,0.00,WUHU216HW,2013-03-03 17:12:00,
2013-03-03 11:17:00,35.8,22.1,30.02,NNE,23,2.9,8.5,57,0.00,,,0.00,WUHU216HW,2013-03-03 17:17:00,
2013-03-03 11:22:00,36.2,20.3,30.02,NW,315,6.5,8.1,52,0.00,,,0.00,WUHU216HW,2013-03-03 17:22:00,
2013-03-03 11:27:00,36.2,21.5,30.02,NNW,338,1.6,7.6,55,0.00,,,0.00,WUHU216HW,2013-03-03 17:27:00,
2013-03-03 11:32:00,36.7,20.4,30.01,NNW,338,2.2,6.9,51,0.00,,,0.00,WUHU216HW,2013-03-03 17:32:00,
2013-03-03 11:37:00,36.7,21.2,30.01,NNE,23,0.4,6.9,53,0.00,,,0.00,WUHU216HW,2013-03-03 17:37:00,
2013-03-03 11:42:00,37.1,20.6,30.01,NNE,23,6.3,8.5,51,0.00,,,0.00,WUHU216HW,2013-03-03 17:42:00,
2013-03-03 11:47:00,37.1,21.5,30.01,NNE,23,6.3,8.5,53,0.00,,,0.00,WUHU216HW,2013-03-03 17:47:00,
2013-03-03 11:52:00,37.3,20.3,30.01,NNW,338,2.5,10.5,50,0.00,,,0.00,WUHU216HW,2013-03-03 17:52:00,
2013-03-03 11:57:00,37.1,20.2,30.01,NW,315,1.1,10.5,50,0.00,,,0.00,WUHU216HW,2013-03-03 17:57:00,
2013-03-03 12:02:00,37.3,21.3,30.00,North,0,4.7,9.2,52,0.00,,,0.00,WUHU216HW,2013-03-03 18:02:00,
2013-03-03 12:08:00,37.8,20.4,30.00,NNE,23,5.4,9.2,49,0.00,,,0.00,WUHU216HW,2013-03-03 18:08:00,
2013-03-03 12:13:00,37.8,20.9,30.01,NNW,338,7.4,7.6,50,0.00,,,0.00,WUHU216HW,2013-03-03 18:13:00,
2013-03-03 12:18:00,37.8,20.4,30.01,NW,315,1.8,8.9,49,0.00,,,0.00,WUHU216HW,2013-03-03 18:18:00,
2013-03-03 12:23:00,37.8,19.3,30.00,North,0,4.9,8.9,47,0.00,,,0.00,WUHU216HW,2013-03-03 18:23:00,
2013-03-03 12:28:00,38.0,18.9,30.00,West,270,3.8,9.8,46,0.00,,,0.00,WUHU216HW,2013-03-03 18:28:00,
2013-03-03 12:33:00,38.0,20.0,29.99,ENE,68,1.1,9.8,48,0.00,,,0.00,WUHU216HW,2013-03-03 18:33:00,
2013-03-03 12:38:00,38.3,20.3,29.99,North,0,4.5,5.6,48,0.00,,,0.00,WUHU216HW,2013-03-03 18:38:00,
2013-03-03 12:43:00,38.7,20.1,29.99,NNW,338,2.0,6.3,47,0.00,,,0.00,WUHU216HW,2013-03-03 18:43:00,
2013-03-03 12:48:00,38.9,18.7,29.99,NNW,338,7.8,9.8,44,0.00,,,0.00,WUHU216HW,2013-03-03 18:48:00,
2013-03-03 12:53:00,39.1,19.4,29.99,NNW,338,4.3,9.8,45,0.00,,,0.00,WUHU216HW,2013-03-03 18:53:00,
2013-03-03 12:58:00,39.4,19.7,29.98,NNW,338,2.7,8.5,45,0.00,,,0.00,WUHU216HW,2013-03-03 18:58:00,
2013-03-03 13:03:00,39.2,18.5,29.98,NNW,338,5.6,7.8,43,0.00,,,0.00,WUHU216HW,2013-03-03 19:03:00,
2013-03-03 13:08:00,40.0,18.1,29.98,NNW,338,6.7,7.8,41,0.00,,,0.00,WUHU216HW,2013-03-03 19:08:00,
2013-03-03 13:13:00,39.8,16.7,29.97,NW,315,5.1,7.4,39,0.00,,,0.00,WUHU216HW,2013-03-03 19:13:00,
2013-03-03 13:18:00,40.1,18.3,29.97,NW,315,3.1,7.4,41,0.00,,,0.00,WUHU216HW,2013-03-03 19:18:00,
2013-03-03 13:23:00,40.3,15.9,29.97,NNW,338,3.4,7.6,37,0.00,,,0.00,WUHU216HW,2013-03-03 19:23:00,
2013-03-03 13:28:00,40.3,16.6,29.97,NE,45,1.1,8.9,38,0.00,,,0.00,WUHU216HW,2013-03-03 19:28:00,
2013-03-03 13:33:00,40.9,17.7,29.97,NW,315,3.1,8.9,39,0.00,,,0.00,WUHU216HW,2013-03-03 19:33:00,
2013-03-03 13:38:00,40.9,17.7,29.97,NW,315,2.9,6.3,39,0.00,,,0.00,WUHU216HW,2013-03-03 19:38:00,
2013-03-03 13:43:00,40.7,16.9,29.96,ENE,68,0.7,6.7,38,0.00,,,0.00,WUHU216HW,2013-03-03 19:43:00,
2013-03-03 13:48:00,41.2,17.4,29.96,NNW,338,5.1,6.7,38,0.00,,,0.00,WUHU216HW,2013-03-03 19:48:00,
2013-03-03 13:53:00,41.4,16.9,29.97,WNW,293,7.2,8.5,37,0.00,,,0.00,WUHU216HW,2013-03-03 19:53:00,
2013-03-03 13:58:00,41.4,18.2,29.96,NNW,338,4.3,8.5,39,0.00,,,0.00,WUHU216HW,2013-03-03 19:58:00,
2013-03-03 14:04:00,42.1,18.8,29.96,NE,45,1.6,7.6,39,0.00,,,0.00,WUHU216HW,2013-03-03 20:04:00,
2013-03-03 14:09:00,42.3,17.0,29.96,NW,315,8.1,8.1,36,0.00,,,0.00,WUHU216HW,2013-03-03 20:09:00,
2013-03-03 14:14:00,42.1,16.2,29.96,NNE,23,6.7,8.1,35,0.00,,,0.00,WUHU216HW,2013-03-03 20:14:00,
2013-03-03 14:19:00,41.9,18.0,29.96,NNW,338,3.8,11.4,38,0.00,,,0.00,WUHU216HW,2013-03-03 20:19:00,
2013-03-03 14:24:00,42.5,17.8,29.96,North,0,1.3,11.4,37,0.00,,,0.00,WUHU216HW,2013-03-03 20:24:00,
2013-03-03 14:29:00,42.1,16.2,29.96,NNW,338,4.7,6.5,35,0.00,,,0.00,WUHU216HW,2013-03-03 20:29:00,
2013-03-03 14:34:00,42.1,16.9,29.96,NW,315,2.7,6.9,36,0.00,,,0.00,WUHU216HW,2013-03-03 20:34:00,
2013-03-03 14:39:00,42.3,17.0,29.96,North,0,6.7,6.9,36,0.00,,,0.00,WUHU216HW,2013-03-03 20:39:00,
2013-03-03 14:44:00,42.7,16.7,29.96,NNW,338,5.6,6.7,35,0.00,,,0.00,WUHU216HW,2013-03-03 20:44:00,
2013-03-03 14:49:00,42.8,16.8,29.96,WNW,293,3.1,6.9,35,0.00,,,0.00,WUHU216HW,2013-03-03 20:49:00,
2013-03-03 14:54:00,42.8,16.2,29.96,NNW,338,5.4,6.9,34,0.00,,,0.00,WUHU216HW,2013-03-03 20:54:00,
2013-03-03 14:59:00,42.8,15.5,29.96,NNW,338,6.3,8.3,33,0.00,,,0.00,WUHU216HW,2013-03-03 20:59:00,
2013-03-03 15:04:00,42.8,15.5,29.96,North,0,3.4,8.3,33,0.00,,,0.00,WUHU216HW,2013-03-03 21:04:00,
2013-03-03 15:09:00,42.8,14.9,29.96,NNE,23,0.9,6.7,32,0.00,,,0.00,WUHU216HW,2013-03-03 21:09:00,
2013-03-03 15:14:00,42.8,15.5,29.96,NNE,23,2.7,7.8,33,0.00,,,0.00,WUHU216HW,2013-03-03 21:14:00,
2013-03-03 15:19:00,43.0,15.7,29.96,NNE,23,4.3,7.8,33,0.00,,,0.00,WUHU216HW,2013-03-03 21:19:00,
2013-03-03 15:24:00,43.0,15.7,29.96,ENE,68,1.8,5.8,33,0.00,,,0.00,WUHU216HW,2013-03-03 21:24:00,
2013-03-03 15:29:00,43.2,15.1,29.96,North,0,3.4,5.6,32,0.00,,,0.00,WUHU216HW,2013-03-03 21:29:00,
2013-03-03 15:34:00,43.2,14.5,29.96,NNW,338,5.1,7.6,31,0.01,,,0.02,WUHU216HW,2013-03-03 21:34:00,
2013-03-03 15:39:00,43.0,14.3,29.96,NW,315,4.9,8.5,31,0.01,,,0.02,WUHU216HW,2013-03-03 21:39:00,
2013-03-03 15:45:00,43.0,15.0,29.96,NW,315,1.1,8.5,32,0.01,,,0.02,WUHU216HW,2013-03-03 21:45:00,
2013-03-03 15:50:00,43.0,15.0,29.95,NNE,23,2.2,9.8,32,0.01,,,0.02,WUHU216HW,2013-03-03 21:50:00,
2013-03-03 15:55:00,43.4,16.0,29.95,NNE,23,2.5,9.8,33,0.01,,,0.02,WUHU216HW,2013-03-03 21:55:00,
2013-03-03 16:00:00,43.6,16.1,29.95,NE,45,4.9,5.4,33,0.01,,,0.02,WUHU216HW,2013-03-03 22:00:00,
2013-03-03 16:05:00,43.2,15.9,29.95,ENE,68,1.6,5.4,33,0.01,,,0.02,WUHU216HW,2013-03-03 22:05:00,
2013-03-03 16:10:00,43.6,16.1,29.95,WNW,293,3.4,4.9,33,0.01,,,0.02,WUHU216HW,2013-03-03 22:10:00,
2013-03-03 16:15:00,43.2,15.9,29.95,WNW,293,2.5,6.5,33,0.01,,,0.02,WUHU216HW,2013-03-03 22:15:00,
2013-03-03 16:20:00,43.2,15.1,29.95,NW,315,2.0,6.5,32,0.01,,,0.02,WUHU216HW,2013-03-03 22:20:00,
2013-03-03 16:25:00,44.1,16.7,29.94,NW,315,2.5,6.5,33,0.01,,,0.02,WUHU216HW,2013-03-03 22:25:00,
2013-03-03 16:30:00,45.7,17.5,29.95,NNW,338,5.4,6.0,32,0.01,,,0.02,WUHU216HW,2013-03-03 22:30:00,
2013-03-03 16:35:00,46.6,17.6,29.95,North,0,2.5,6.0,31,0.00,,,0.02,WUHU216HW,2013-03-03 22:35:00,
2013-03-03 16:40:00,47.9,18.7,29.95,NNW,338,3.4,5.6,31,0.00,,,0.02,WUHU216HW,2013-03-03 22:40:00,
2013-03-03 16:45:00,47.9,18.0,29.95,WNW,293,1.1,4.9,30,0.00,,,0.02,WUHU216HW,2013-03-03 22:45:00,
2013-03-03 16:50:00,47.2,17.4,29.95,NW,315,1.8,7.2,30,0.00,,,0.02,WUHU216HW,2013-03-03 22:50:00,
2013-03-03 16:55:00,46.4,17.4,29.95,NNW,338,2.5,7.2,31,0.00,,,0.02,WUHU216HW,2013-03-03 22:55:00,
2013-03-03 17:00:00,45.4,17.7,29.94,NW,315,0.7,4.9,33,0.00,,,0.02,WUHU216HW,2013-03-03 23:00:00,
2013-03-03 17:05:00,44.1,16.7,29.94,NNE,23,0.7,3.6,33,0.00,,,0.02,WUHU216HW,2013-03-03 23:05:00,
2013-03-03 17:10:00,43.7,17.6,29.94,NNE,23,1.1,3.4,35,0.00,,,0.02,WUHU216HW,2013-03-03 23:10:00,
2013-03-03 17:15:00,44.3,16.8,29.94,NW,315,2.5,4.0,33,0.00,,,0.02,WUHU216HW,2013-03-03 23:15:00,
2013-03-03 17:20:00,44.1,18.0,29.95,NW,315,2.5,4.0,35,0.00,,,0.02,WUHU216HW,2013-03-03 23:20:00,
2013-03-03 17:25:00,43.4,18.0,29.95,NNW,338,1.6,3.4,36,0.00,,,0.02,WUHU216HW,2013-03-03 23:25:00,
2013-03-03 17:30:00,42.5,18.6,29.95,West,270,0.7,3.4,38,0.00,,,0.02,WUHU216HW,2013-03-03 23:30:00,
2013-03-03 17:35:00,42.1,18.2,29.95,NNW,338,1.1,2.0,38,0.00,,,0.02,WUHU216HW,2013-03-03 23:35:00,
2013-03-03 17:40:00,41.8,19.7,29.95,North,0,1.1,2.0,41,0.00,,,0.02,WUHU216HW,2013-03-03 23:40:00,
2013-03-03 17:45:00,41.4,19.4,29.95,NNW,338,0.2,1.6,41,0.00,,,0.02,WUHU216HW,2013-03-03 23:45:00,
2013-03-03 17:50:00,41.2,19.7,29.95,East,90,0.4,1.3,42,0.00,,,0.02,WUHU216HW,2013-03-03 23:50:00,
2013-03-03 17:55:00,40.5,20.7,29.95,SE,135,0.2,1.3,45,0.00,,,0.02,WUHU216HW,2013-03-03 23:55:00,
2013-03-03 18:00:00,39.8,20.5,29.95,NNE,23,1.1,1.3,46,0.00,,,0.02,WUHU216HW,2013-03-04 00:00:00,
2013-03-03 18:05:00,39.6,20.3,29.95,NNE,23,0.0,1.1,46,0.00,,,0.02,WUHU216HW,2013-03-04 00:05:00,
2013-03-03 18:10:00,39.6,20.3,29.95,NNE,23,0.0,1.1,46,0.00,,,0.02,WUHU216HW,2013-03-04 00:10:00,
2013-03-03 18:15:00,39.4,19.7,29.95,NNE,23,0.4,0.7,45,0.00,,,0.02,WUHU216HW,2013-03-04 00:15:00,
2013-03-03 18:20:00,39.4,19.7,29.96,North,0,1.1,2.0,45,0.00,,,0.02,WUHU216HW,2013-03-04 00:20:00,
2013-03-03 18:25:00,39.4,19.7,29.96,NNE,23,0.0,2.0,45,0.00,,,0.02,WUHU216HW,2013-03-04 00:25:00,
2013-03-03 18:30:00,39.4,20.3,29.96,North,0,0.0,1.1,46,0.00,,,0.02,WUHU216HW,2013-03-04 00:30:00,
2013-03-03 18:35:00,39.4,20.3,29.96,North,0,0.4,1.1,46,0.00,,,0.02,WUHU216HW,2013-03-04 00:35:00,
2013-03-03 18:40:00,39.4,20.7,29.96,NNW,338,0.4,1.8,47,0.00,,,0.02,WUHU216HW,2013-03-04 00:40:00,
2013-03-03 18:45:00,39.2,23.1,29.96,NNE,23,0.4,1.8,52,0.00,,,0.02,WUHU216HW,2013-03-04 00:45:00,
2013-03-03 18:50:00,38.9,24.4,29.96,NNW,338,0.7,1.1,56,0.00,,,0.02,WUHU216HW,2013-03-04 00:50:00,
2013-03-03 18:56:00,38.7,23.0,29.96,NNW,338,0.0,1.1,53,0.00,,,0.02,WUHU216HW,2013-03-04 00:56:00,
2013-03-03 19:01:00,38.5,22.3,29.96,SSE,158,0.0,0.9,52,0.00,,,0.02,WUHU216HW,2013-03-04 01:01:00,
2013-03-03 19:06:00,38.3,22.6,29.96,SE,135,0.4,0.9,53,0.00,,,0.02,WUHU216HW,2013-03-04 01:06:00,
2013-03-03 19:11:00,38.2,22.5,29.96,SE,135,0.0,0.9,53,0.00,,,0.02,WUHU216HW,2013-03-04 01:11:00,
2013-03-03 19:16:00,38.2,22.5,29.96,SE,135,0.0,0.4,53,0.00,,,0.02,WUHU216HW,2013-03-04 01:16:00,
2013-03-03 19:21:00,38.0,22.3,29.96,East,90,0.0,0.4,53,0.00,,,0.02,WUHU216HW,2013-03-04 01:21:00,
2013-03-03 19:26:00,37.8,22.6,29.96,SE,135,0.2,1.1,54,0.00,,,0.02,WUHU216HW,2013-03-04 01:26:00,
2013-03-03 19:31:00,37.8,22.6,29.96,SE,135,0.0,1.1,54,0.00,,,0.02,WUHU216HW,2013-03-04 01:31:00,
2013-03-03 19:36:00,37.8,22.6,29.96,NNE,23,0.2,1.1,54,0.00,,,0.02,WUHU216HW,2013-03-04 01:36:00,
2013-03-03 19:41:00,37.4,22.2,29.96,NNE,23,0.0,1.1,54,0.00,,,0.02,WUHU216HW,2013-03-04 01:41:00,
2013-03-03 19:46:00,37.1,22.3,29.96,East,90,0.0,0.4,55,0.00,,,0.02,WUHU216HW,2013-03-04 01:46:00,
2013-03-03 19:51:00,36.7,22.5,29.96,East,90,0.7,0.9,56,0.00,,,0.02,WUHU216HW,2013-03-04 01:51:00,
2013-03-03 19:56:00,36.4,22.6,29.95,ENE,68,0.0,0.9,57,0.00,,,0.02,WUHU216HW,2013-03-04 01:56:00,
2013-03-03 20:01:00,36.4,22.6,29.95,NE,45,0.0,0.7,57,0.00,,,0.02,WUHU216HW,2013-03-04 02:01:00,
2013-03-03 20:06:00,36.4,22.6,29.96,NNE,23,0.0,0.7,57,0.00,,,0.02,WUHU216HW,2013-03-04 02:06:00,
2013-03-03 20:11:00,36.2,22.9,29.96,NNE,23,0.0,0.9,58,0.00,,,0.02,WUHU216HW,2013-03-04 02:11:00,
2013-03-03 20:16:00,36.2,23.3,29.96,SE,135,0.2,1.1,59,0.00,,,0.02,WUHU216HW,2013-03-04 02:16:00,
2013-03-03 20:21:00,35.6,22.8,29.96,SE,135,0.0,1.1,59,0.00,,,0.02,WUHU216HW,2013-03-04 02:21:00,
2013-03-03 20:26:00,35.6,22.8,29.96,SE,135,0.0,0.2,59,0.00,,,0.02,WUHU216HW,2013-03-04 02:26:00,
2013-03-03 20:31:00,35.3,22.9,29.96,ENE,68,0.2,1.8,60,0.00,,,0.02,WUHU216HW,2013-03-04 02:31:00,
2013-03-03 20:36:00,34.9,22.5,29.96,NE,45,0.0,1.8,60,0.00,,,0.02,WUHU216HW,2013-03-04 02:36:00,
2013-03-03 20:41:00,34.9,22.5,29.96,NE,45,0.0,0.4,60,0.00,,,0.02,WUHU216HW,2013-03-04 02:41:00,
2013-03-03 20:47:00,34.9,22.9,29.96,NNE,23,0.2,0.4,61,0.00,,,0.02,WUHU216HW,2013-03-04 02:47:00,
2013-03-03 20:52:00,34.6,22.9,29.96,ENE,68,0.2,1.1,62,0.00,,,0.02,WUHU216HW,2013-03-04 02:52:00,
2013-03-03 20:57:00,34.4,22.7,29.96,SE,135,0.0,1.6,62,0.00,,,0.02,WUHU216HW,2013-03-04 02:57:00,
2013-03-03 21:02:00,34.6,22.9,29.96,NE,45,0.0,1.6,62,0.00,,,0.02,WUHU216HW,2013-03-04 03:02:00,
2013-03-03 21:07:00,34.4,22.7,29.97,NNE,23,0.0,1.3,62,0.00,,,0.02,WUHU216HW,2013-03-04 03:07:00,
2013-03-03 21:12:00,34.2,22.5,29.97,NNE,23,0.0,1.3,62,0.00,,,0.02,WUHU216HW,2013-03-04 03:12:00,
2013-03-03 21:17:00,34.2,22.5,29.97,East,90,0.0,0.7,62,0.00,,,0.02,WUHU216HW,2013-03-04 03:17:00,
2013-03-03 21:22:00,34.0,22.7,29.97,ENE,68,0.0,0.4,63,0.00,,,0.02,WUHU216HW,2013-03-04 03:22:00,
2013-03-03 21:27:00,34.0,23.4,29.97,East,90,0.0,0.4,65,0.00,,,0.02,WUHU216HW,2013-03-04 03:27:00,
2013-03-03 21:32:00,34.2,23.6,29.97,East,90,0.0,0.4,65,0.00,,,0.02,WUHU216HW,2013-03-04 03:32:00,
2013-03-03 21:37:00,34.2,23.6,29.96,NNE,23,0.0,0.4,65,0.00,,,0.02,WUHU216HW,2013-03-04 03:37:00,
2013-03-03 21:42:00,34.2,23.6,29.96,NNE,23,0.0,0.4,65,0.00,,,0.02,WUHU216HW,2013-03-04 03:42:00,
2013-03-03 21:47:00,34.4,23.8,29.97,North,0,0.7,1.1,65,0.00,,,0.02,WUHU216HW,2013-03-04 03:47:00,
2013-03-03 21:52:00,34.6,24.7,29.97,NNW,338,0.4,1.1,67,0.00,,,0.02,WUHU216HW,2013-03-04 03:52:00,
2013-03-03 21:57:00,34.6,24.7,29.98,NNW,338,0.0,0.9,67,0.00,,,0.02,WUHU216HW,2013-03-04 03:57:00,
2013-03-03 22:02:00,34.6,24.7,29.97,North,0,0.0,0.4,67,0.00,,,0.02,WUHU216HW,2013-03-04 04:02:00,
2013-03-03 22:07:00,34.4,24.5,29.97,NNE,23,0.0,0.4,67,0.00,,,0.02,WUHU216HW,2013-03-04 04:07:00,
2013-03-03 22:12:00,34.4,24.5,29.97,SSE,158,0.0,0.9,67,0.00,,,0.02,WUHU216HW,2013-03-04 04:12:00,
2013-03-03 22:18:00,34.6,24.7,29.96,SSE,158,0.0,0.9,67,0.00,,,0.02,WUHU216HW,2013-03-04 04:18:00,
2013-03-03 22:23:00,34.6,24.7,29.96,NNE,23,0.0,0.7,67,0.00,,,0.02,WUHU216HW,2013-03-04 04:23:00,
2013-03-03 22:28:00,34.4,24.5,29.96,NNE,23,0.4,0.7,67,0.00,,,0.02,WUHU216HW,2013-03-04 04:28:00,
2013-03-03 22:33:00,34.4,25.6,29.97,North,0,0.9,0.9,70,0.00,,,0.02,WUHU216HW,2013-03-04 04:33:00,
2013-03-03 22:38:00,34.4,24.8,29.97,North,0,0.0,0.9,68,0.00,,,0.02,WUHU216HW,2013-03-04 04:38:00,
2013-03-03 22:43:00,34.4,25.9,29.97,West,270,0.7,0.9,71,0.00,,,0.02,WUHU216HW,2013-03-04 04:43:00,
2013-03-03 22:48:00,34.6,25.4,29.97,NW,315,0.0,0.9,69,0.00,,,0.02,WUHU216HW,2013-03-04 04:48:00,
2013-03-03 22:53:00,34.6,25.4,29.97,NW,315,0.0,0.7,69,0.00,,,0.02,WUHU216HW,2013-03-04 04:53:00,
2013-03-03 22:58:00,34.6,25.4,29.97,NW,315,0.0,0.0,69,0.00,,,0.02,WUHU216HW,2013-03-04 04:58:00,
2013-03-03 23:00:00,34.4,24.8,29.97,NW,315,0.0,0.0,68,0.00,,,0.02,WUHU216HW,2013-03-04 05:00:00,
2013-03-03 23:02:00,34.4,25.2,29.97,NW,315,0.0,0.2,69,0.00,,,0.02,WUHU216HW,2013-03-04 05:02:00,
2013-03-03 23:07:00,34.6,25.4,29.97,NW,315,0.0,0.4,69,0.00,,,0.02,WUHU216HW,2013-03-04 05:07:00,
2013-03-03 23:12:00,34.6,25.4,29.97,North,0,0.0,0.7,69,0.00,,,0.02,WUHU216HW,2013-03-04 05:12:00,
2013-03-03 23:17:00,34.4,25.2,29.97,North,0,0.0,0.7,69,0.00,,,0.02,WUHU216HW,2013-03-04 05:17:00,
2013-03-03 23:22:00,34.4,25.2,29.98,North,0,0.0,0.0,69,0.00,,,0.02,WUHU216HW,2013-03-04 05:22:00,
2013-03-03 23:27:00,34.4,24.8,29.97,NE,45,0.0,0.4,68,0.00,,,0.02,WUHU216HW,2013-03-04 05:27:00,
2013-03-03 23:32:00,34.0,25.2,29.98,NE,45,0.0,0.4,70,0.00,,,0.02,WUHU216HW,2013-03-04 05:32:00,
2013-03-03 23:37:00,33.7,24.5,29.98,NE,45,0.0,0.0,69,0.00,,,0.02,WUHU216HW,2013-03-04 05:37:00,
2013-03-03 23:42:00,33.3,24.6,29.98,NE,45,0.0,0.0,70,0.00,,,0.02,WUHU216HW,2013-03-04 05:42:00,
2013-03-03 23:47:00,33.1,24.4,29.98,NE,45,0.0,0.0,70,0.00,,,0.02,WUHU216HW,2013-03-04 05:47:00,
2013-03-03 23:52:00,33.1,24.4,29.98,NE,45,0.0,0.0,70,0.00,,,0.02,WUHU216HW,2013-03-04 05:52:00,
2013-03-03 23:57:00,32.9,24.8,29.97,NE,45,0.0,0.0,72,0.00,,,0.02,WUHU216HW,2013-03-04 05:57:00,